Погода в Борисове

Россия / Калужская область     55°10′33″N   36°04′50″E
темп.,
°C
ветер,
м/с
пор.,
м/с
влажн.,
%
обл.,
%
осадки,
мм/ч
давл.,
гПа
погр.,
м
5 августа, чт
чт500:00+14в118637 0.3 101714
03:00+14вюв118997 0.4 101711
06:00+13юв2295100 0.0 101753
09:00+18ююв3574100 0.0 1016390
12:00+20ююз5773100 0.8 10161185
15:00+14вюв3797100 2.9 1015274
18:00+15юв259674 0.4 1014263
21:00+14в2798100 2.3 1013165
6 августа, пт
пт600:00+14юв139882 0.6 101272
03:00+14юв239782 1.1 101161
06:00+14ююв139814 0.7 101175
09:00+19ююв2488100 0.7 1010376
12:00+20ю3582100 0.2 1011664
15:00+18ююв2397100 1.6 1010212
18:00+18в3896100 0.6 1009304
21:00+18в41196100 1.1 1008387
7 августа, сб
сб700:00+16в4139692 0.0 1007356
03:00+16вюв389899 0.3 1007236
06:00+15вюв249899 0.0 100799
09:00+21ююв3684100 0.0 1007383
12:00+26ю355767 0.0 10071122
15:00+25ю486287 0.3 1007984
18:00+21зюз368998 1.6 1007144
21:00+18зюз2696100 2.1 1009123
8 августа, вс
вс800:00+18зсз2696100 0.0 1011230
03:00+14зюз239590 0.0 101366
06:00+13зюз289699 0.0 1013202
09:00+17зюз3681100 0.0 1014456
12:00+22зюз3458100 0.0 10141301
15:00+23зсз445285 0.0 10151447
18:00+22зсз24607 0.0 10161091
21:00+16ю11820 0.0 101711
9 августа, пн
пн900:00+15юз22855 0.0 101816
03:00+14з22871 0.0 101913
06:00+14зюз11855 0.0 101910
09:00+21ююз125877 0.0 1019349
12:00+26юз114316 0.0 10191330
15:00+27ю113958 0.0 10181654
18:00+25ююв2354100 0.0 1017107
21:00+19ю11659 0.0 101811